timestamp,surface_pressure_avg,surface_temp_avg,battery_voltage,lat,long
2018-10-28 00:00:00+00:00,307.1797,8.95,13.05,47.84626,-54.09684
2018-10-28 00:10:00+00:00,319.2013,9.0,12.97,47.84626,-54.09684
2018-10-28 00:20:00+00:00,326.6697,9.0,13.05,47.84626,-54.09684
2018-10-28 00:30:00+00:00,327.0497,9.0,13.05,47.84626,-54.09684
2018-10-28 00:40:00+00:00,326.5097,9.0,13.05,47.84626,-54.09684
2018-10-28 00:50:00+00:00,329.6313,9.0,13.05,47.84626,-54.09684
2018-10-28 01:00:00+00:00,333.1246,9.0,13.05,47.84626,-54.09684
2018-10-28 01:10:00+00:00,336.0563,9.45,12.97,47.84626,-54.09684
2018-10-28 01:20:00+00:00,341.4747,9.5,13.05,47.84626,-54.09684
2018-10-28 01:30:00+00:00,344.6747,9.5,13.05,47.84626,-54.09684
2018-10-28 01:40:00+00:00,339.6763,9.5,13.05,47.84626,-54.09684
2018-10-28 01:50:00+00:00,337.0113,9.5,13.05,47.84626,-54.09684
2018-10-28 02:00:00+00:00,328.778,9.3,12.97,47.84626,-54.09684
2018-10-28 02:10:00+00:00,323.138,9.3,12.89,47.84626,-54.09684
2018-10-28 02:20:00+00:00,322.408,9.3,12.97,47.84626,-54.09684
2018-10-28 02:30:00+00:00,326.7213,9.4,12.97,47.84626,-54.09684
2018-10-28 02:40:00+00:00,326.5996,9.4,13.05,47.84626,-54.09684
2018-10-28 02:50:00+00:00,318.8197,9.47,13.05,47.84626,-54.09684
2018-10-28 03:00:00+00:00,318.3546,9.5,12.97,47.84626,-54.09684
2018-10-28 03:10:00+00:00,320.6263,9.49,12.89,47.84626,-54.09684
2018-10-28 03:20:00+00:00,312.3297,9.5,12.97,47.84626,-54.09684
2018-10-28 03:30:00+00:00,300.203,9.5,12.97,47.84626,-54.09684
2018-10-28 03:40:00+00:00,298.7864,9.5,13.05,47.84626,-54.09684
2018-10-28 03:50:00+00:00,294.238,9.49,13.05,47.84626,-54.09684
2018-10-28 04:00:00+00:00,284.628,9.4,12.97,47.84626,-54.09684
2018-10-28 04:10:00+00:00,276.418,9.49,12.89,47.84626,-54.09684
2018-10-28 04:20:00+00:00,272.6214,9.4,12.97,47.84626,-54.09684
2018-10-28 04:30:00+00:00,261.2831,9.3,12.97,47.84626,-54.09684
2018-10-28 04:40:00+00:00,255.3664,9.2,12.97,47.84626,-54.09684
2018-10-28 04:50:00+00:00,249.5414,9.2,12.97,47.84626,-54.09684
2018-10-28 05:00:00+00:00,240.4864,9.1,12.97,47.84626,-54.09684
2018-10-28 05:10:00+00:00,226.7564,9.0,12.89,47.84626,-54.09684
2018-10-28 05:20:00+00:00,220.9598,9.1,12.97,47.84626,-54.09684
2018-10-28 05:30:00+00:00,210.9648,9.1,12.97,47.84626,-54.09684
2018-10-28 05:40:00+00:00,192.6097,8.9,12.97,47.84626,-54.09684
2018-10-28 05:50:00+00:00,179.9148,8.8,12.97,47.84626,-54.09684
2018-10-28 06:00:00+00:00,177.5882,8.8,12.89,47.84626,-54.09684
2018-10-28 06:10:00+00:00,176.3164,8.82,12.81,47.84626,-54.09684
2018-10-28 06:20:00+00:00,172.9298,8.9,12.97,47.84626,-54.09684
2018-10-28 06:30:00+00:00,175.3765,8.9,12.97,47.84626,-54.09684
2018-10-28 06:40:00+00:00,178.5631,8.9,12.97,47.84626,-54.09684
2018-10-28 06:50:00+00:00,172.2915,9.0,12.97,47.84626,-54.09684
2018-10-28 07:00:00+00:00,170.5482,9.07,12.89,47.84626,-54.09684
2018-10-28 07:10:00+00:00,172.3665,9.1,12.81,47.84626,-54.09684
2018-10-28 07:20:00+00:00,165.1832,9.11,12.89,47.84626,-54.09684
2018-10-28 07:30:00+00:00,163.2332,9.17,12.97,47.84626,-54.09684
2018-10-28 07:40:00+00:00,169.2615,9.19,12.97,47.84626,-54.09684
2018-10-28 07:50:00+00:00,166.9265,9.2,12.97,47.84626,-54.09684
2018-10-28 08:00:00+00:00,167.1115,9.2,12.89,47.84626,-54.09684
2018-10-28 08:10:00+00:00,180.5898,9.2,12.81,47.84626,-54.09684
2018-10-28 08:20:00+00:00,191.2598,9.19,12.89,47.84626,-54.09684
2018-10-28 08:30:00+00:00,195.0347,9.19,12.89,47.84626,-54.09684
2018-10-28 08:40:00+00:00,200.0131,9.19,12.97,47.84626,-54.09684
2018-10-28 08:50:00+00:00,210.6048,9.2,12.97,47.84626,-54.09684
2018-10-28 09:00:00+00:00,212.1431,9.2,12.89,47.84626,-54.09684
2018-10-28 09:10:00+00:00,208.6298,9.2,12.81,47.84626,-54.09684
2018-10-28 09:20:00+00:00,218.1831,9.2,12.89,47.84626,-54.09684
2018-10-28 09:30:00+00:00,228.6514,9.19,12.89,47.84626,-54.09684
2018-10-28 09:40:00+00:00,225.7664,9.38,12.97,47.84626,-54.09684
2018-10-28 09:50:00+00:00,222.2064,9.23,12.97,47.84626,-54.09684
2018-10-28 10:00:00+00:00,231.0648,9.67,12.89,47.84626,-54.09684
2018-10-28 10:10:00+00:00,241.838,9.37,12.81,47.84626,-54.09684
2018-10-28 10:20:00+00:00,244.7747,8.61,12.89,47.84626,-54.09684
2018-10-28 10:30:00+00:00,247.9248,9.65,12.89,47.84626,-54.09684
2018-10-28 10:40:00+00:00,255.2948,9.79,12.97,47.84626,-54.09684
2018-10-28 10:50:00+00:00,259.953,9.78,12.97,47.84626,-54.09684
2018-10-28 11:00:00+00:00,264.8831,9.86,12.89,47.84626,-54.09684
2018-10-28 11:10:00+00:00,269.8264,9.9,12.81,47.84626,-54.09684
2018-10-28 11:20:00+00:00,275.1031,10.0,12.89,47.84626,-54.09684
2018-10-28 11:30:00+00:00,281.858,10.1,12.97,47.84626,-54.09684
2018-10-28 11:40:00+00:00,289.8447,10.1,12.97,47.84626,-54.09684
2018-10-28 11:50:00+00:00,300.873,10.1,12.97,47.84626,-54.09684
2018-10-28 12:00:00+00:00,312.178,10.1,12.89,47.84626,-54.09684
2018-10-28 12:10:00+00:00,324.978,10.1,12.81,47.84626,-54.09684
2018-10-28 12:20:00+00:00,337.828,10.1,12.89,47.84626,-54.09684
2018-10-28 12:30:00+00:00,342.0729,10.1,12.89,47.84626,-54.09684
2018-10-28 12:40:00+00:00,343.9963,10.1,12.97,47.84626,-54.09684
2018-10-28 12:50:00+00:00,356.3913,10.1,12.97,47.84626,-54.09684
2018-10-28 13:00:00+00:00,354.8313,10.1,12.89,47.84626,-54.09684
2018-10-28 13:10:00+00:00,352.6113,10.1,12.81,47.84626,-54.09684
2018-10-28 13:20:00+00:00,355.4162,10.1,12.97,47.84626,-54.09684
2018-10-28 13:30:00+00:00,365.628,10.13,12.97,47.84626,-54.09684
2018-10-28 13:40:00+00:00,357.6779,10.14,12.97,47.84626,-54.09684
2018-10-28 13:50:00+00:00,352.3346,10.11,12.97,47.84626,-54.09684
2018-10-28 14:00:00+00:00,363.8446,10.12,12.89,47.84626,-54.09684
2018-10-28 14:10:00+00:00,366.9763,10.11,12.81,47.84626,-54.09684
2018-10-28 14:20:00+00:00,357.7745,10.15,12.89,47.84626,-54.09684
2018-10-28 14:30:00+00:00,358.8179,10.15,12.97,47.84626,-54.09684
2018-10-28 14:40:00+00:00,364.883,10.1,12.97,47.84626,-54.09684
2018-10-28 14:50:00+00:00,356.2463,10.08,12.97,47.84626,-54.09684
2018-10-28 15:00:00+00:00,346.2896,10.1,12.97,47.84626,-54.09684
2018-10-28 15:10:00+00:00,358.1363,10.1,12.89,47.84626,-54.09684
2018-10-28 15:20:00+00:00,350.8096,10.07,12.97,47.84626,-54.09684
2018-10-28 15:30:00+00:00,333.2263,10.07,12.97,47.84626,-54.09684
2018-10-28 15:40:00+00:00,333.688,10.1,13.05,47.84626,-54.09684
2018-10-28 15:50:00+00:00,343.1246,10.1,13.05,47.84626,-54.09684
2018-10-28 16:00:00+00:00,329.6396,10.06,12.97,47.84626,-54.09684
2018-10-28 16:10:00+00:00,313.7629,10.1,12.89,47.84626,-54.09684
2018-10-28 16:20:00+00:00,324.2513,10.1,12.97,47.84626,-54.09684
2018-10-28 16:30:00+00:00,322.9529,10.0,12.97,47.84626,-54.09684
2018-10-28 16:40:00+00:00,294.988,9.96,13.05,47.84626,-54.09684
2018-10-28 16:50:00+00:00,278.8664,10.08,13.05,47.84626,-54.09684
2018-10-28 17:00:00+00:00,282.5281,10.1,12.97,47.84626,-54.09684
2018-10-28 17:10:00+00:00,270.7714,9.14,12.89,47.84626,-54.09684
2018-10-28 17:20:00+00:00,248.2314,9.69,12.97,47.84626,-54.09684
2018-10-28 17:30:00+00:00,242.7247,9.57,12.97,47.84626,-54.09684
2018-10-28 17:40:00+00:00,240.9064,9.8,13.05,47.84626,-54.09684
2018-10-28 17:50:00+00:00,229.3548,9.6,13.05,47.84626,-54.09684
2018-10-28 18:00:00+00:00,217.5281,9.5,12.97,47.84626,-54.09684
2018-10-28 18:10:00+00:00,217.8298,9.5,12.89,47.84626,-54.09684
2018-10-28 18:20:00+00:00,207.7264,9.5,12.97,47.84626,-54.09684
2018-10-28 18:30:00+00:00,189.5981,9.5,12.97,47.84626,-54.09684
2018-10-28 18:40:00+00:00,188.1965,9.5,12.97,47.84626,-54.09684
2018-10-28 18:50:00+00:00,187.8048,9.55,12.97,47.84626,-54.09684
2018-10-28 19:00:00+00:00,178.6931,9.6,12.89,47.84626,-54.09684
2018-10-28 19:10:00+00:00,173.8499,9.57,12.81,47.84626,-54.09684
2018-10-28 19:20:00+00:00,173.9749,9.57,12.89,47.84626,-54.09684
2018-10-28 19:30:00+00:00,169.4965,9.6,12.89,47.84626,-54.09684
2018-10-28 19:40:00+00:00,165.3548,9.6,12.97,47.84626,-54.09684
2018-10-28 19:50:00+00:00,172.5349,9.6,12.97,47.84626,-54.09684
2018-10-28 20:00:00+00:00,175.0982,9.6,12.89,47.84626,-54.09684
2018-10-28 20:10:00+00:00,173.8098,9.6,12.81,47.84626,-54.09684
2018-10-28 20:20:00+00:00,180.2081,9.6,12.89,47.84626,-54.09684
2018-10-28 20:30:00+00:00,185.1014,9.6,12.89,47.84626,-54.09684
2018-10-28 20:40:00+00:00,183.2165,9.6,12.97,47.84626,-54.09684
2018-10-28 20:50:00+00:00,186.6648,9.6,12.97,47.84626,-54.09684
2018-10-28 21:00:00+00:00,196.5881,9.6,12.89,47.84626,-54.09684
2018-10-28 21:10:00+00:00,199.7365,9.7,12.81,47.84626,-54.09684
2018-10-28 21:20:00+00:00,201.1581,9.7,12.89,47.84626,-54.09684
2018-10-28 21:30:00+00:00,211.3814,9.8,12.89,47.84626,-54.09684
2018-10-28 21:40:00+00:00,215.9648,9.86,12.97,47.84626,-54.09684
2018-10-28 21:50:00+00:00,217.2048,9.85,12.97,47.84626,-54.09684
2018-10-28 22:00:00+00:00,224.8314,9.87,12.89,47.84626,-54.09684
2018-10-28 22:10:00+00:00,231.7348,9.9,12.81,47.84626,-54.09684
2018-10-28 22:20:00+00:00,233.8515,9.88,12.89,47.84626,-54.09684
2018-10-28 22:30:00+00:00,236.1797,9.88,12.89,47.84626,-54.09684
2018-10-28 22:40:00+00:00,238.5081,9.9,12.97,47.84626,-54.09684
2018-10-28 22:50:00+00:00,239.8681,9.9,12.97,47.84626,-54.09684
2018-10-28 23:00:00+00:00,244.5497,9.95,12.89,47.84626,-54.09684
2018-10-28 23:10:00+00:00,252.8881,10.0,12.81,47.84626,-54.09684
2018-10-28 23:20:00+00:00,257.5764,10.0,12.89,47.84626,-54.09684
2018-10-28 23:30:00+00:00,262.4865,10.0,12.89,47.84626,-54.09684
2018-10-28 23:40:00+00:00,270.9947,10.0,12.97,47.84626,-54.09684
2018-10-28 23:50:00+00:00,281.3214,10.0,12.97,47.84626,-54.09684
